sat.trackr.live / text

‹ back to catalog

LDPE-3A

NORAD 55264 · 2023-008B

PAYLOAD ACTIVE UNKNOWN

§ Identity

Operator
Country
US
Launch date
2023-01-15
Launch site
AFETR
Launch vehicle
Mass (kg)
RCS (m²)

Purposes: comms

External: N2YO · Heavens-Above · Gunter

§ Orbital elements

Epoch: 2026-05-25T03:40:02.701056Z

Period
1,452.33 min
Inclination
2.2900°
Eccentricity
0.0000834
Mean motion
0.99151105 rev/d
Perigee alt
36,100.2 km
Apogee alt
36,107.3 km
Semi-major
42,481.9 km
B*
0.0000e+0
RAAN
81.9360°
Arg perigee
35.8261°
Mean anomaly
164.1536°
Rev number
1,158

§ Raw data

LDPE-3A1 55264U 23008B   26145.15280904 -.00000226  00000+0  00000+0 0  99912 55264   2.2900  81.9360 0000834  35.8261 164.1536  0.99151105 11586

JSON: /api/v1/satellites/55264 · /tle

For live sub-satellite position, see the globe view (requires WebGL).

§ Visibility from observer

Set your observer location to see the next 7 days of passes ≥ 10°. The values pass through the URL so the page stays shareable.

No JS? Fill the form by hand. The geolocation button needs JavaScript.